Location: East Horndon
(51.5667°N, 0.3500°E)
Time: 09:03:00
(UTC+00:00)

USA 59 Rocket - Pass Details

Date: 08 November 2025
Orbit: 370 x 1678 km, 63.3° (Epoch: 12 December)

Event Time Altitude Azimuth Distance (km) Brightness Sun altitude
Exits shadow 04:47:55 60° 121° (ESE) 467 -0.4 -21.4°
Drops below altitude 10° 04:50:44 10° 51° (NE) 1,392 2.6 -20.9°
Sets 04:52:40 0° 48° (NE) 2,234 3.6 -20.6°
